Location: Newark
(40.7119°N, 74.0097°W)
Time: 22:52:53
(UTC+00:00)

Tiangong - Pass Details

Date: 26 June 2021
Orbit: 374 x 386 km, 41.5° (Epoch: 27 July)

Event Time Altitude Azimuth Distance (km) Brightness Sun altitude
Exits shadow 07:41:01 24° 277° (W) 828 2.4 -15.7°
Maximum altitude 07:42:44 74° 359° (N) 396 1.1 -15.5°
Drops below altitude 10° 07:45:52 10° 85° (E) 1,392 4.5 -15.1°
Sets 07:47:57 0° 88° (E) 2,247 5.6 -14.9°
